Regional Weather Roundup
Issued by NWS Upton, NY

Current Version | Previous Version | Graphics & Text | Print | Product List | Glossary Off
Versions: 1 2 3 4 5 6 7 8 9 10 11 12 13 14 15 16 17 18 19 20 21 22 23 24 25 26 27 28 29 30 31 32 33 34 35 36 37 38 39 40 41 42 43 44 45 46 47 48 49 50

000
ASUS41 KOKX 190207
RWROKX

REGIONAL WEATHER ROUNDUP
NATIONAL WEATHER SERVICE NEW YORK NY
1000 PM EDT SAT APR 18 2015

NOTE: "FAIR" INDICATES FEW OR NO CLOUDS BELOW 12,000 FEET WITH NO
SIGNIFICANT WEATHER AND/OR OBSTRUCTIONS TO VISIBILITY.

NYZ071-072-176-178-NJZ106-104-190300-
NEW YORK CITY METRO AREA


CITY           SKY/WX    TMP DP  RH WIND       PRES   REMARKS
CENTRAL PARK   PTCLDY    70  27  20 VRB3G21   30.01R
LAGUARDIA APRT PTCLDY    69  30  23 N17G25    29.97R
KENNEDY INTL   MOCLDY    63  41  44 NE9       29.98R
NEWARK/LIBERTY PTCLDY    71  28  20 N21G32    29.97R
BRNX BOT. GARD   N/A     68  28  22 NW13      30.01R
TETERBORO      PTCLDY    69  25  19 NW13G21   29.97R
$$

NYZ177-179-078>081-190300-
LONG ISLAND NEW YORK

CITY           SKY/WX    TMP DP  RH WIND       PRES   REMARKS
FARMINGDALE    PTCLDY    56  43  61 NE5       29.98R
ISLIP          PTCLDY    57  43  59 N8        29.97R
SHIRLEY        PTCLDY    54  41  61 N3        29.99R
WESTHAMPTON    PTCLDY    49  37  63 CALM      30.00R
MONTAUK POINT    N/A     53  42  66 VRB5      29.99S
$$

NYZ052-065-067-190300-
HUDSON VALLEY

CITY           SKY/WX    TMP DP  RH WIND       PRES   REMARKS
WHITE PLAINS   CLEAR     66  28  24 N15G21    29.99R
NEWBURGH       CLEAR     63  30  29 N9G16     30.04R
MONTGOMERY     CLEAR     62  28  27 NW13      30.03R
POUGHKEEPSIE   CLEAR     64  29  26 N13       30.02R
ALBANY         FAIR      58  15  18 N13G22    30.07R
$$

NJZ001-105-106-008-010-013-015-019>022-104-190300-
NEW JERSEY

CITY           SKY/WX    TMP DP  RH WIND       PRES   REMARKS
NEWARK/LIBERTY PTCLDY    71  28  20 N21G32    29.97R
TETERBORO      PTCLDY    69  25  19 NW13G21   29.97R
CALDWELL       PTCLDY    68  19  15 N8        30.00R
MORRISTOWN     CLEAR     66  21  18 N12G23    30.01R
SOMERVILLE     MOCLDY    70  34  26 N13G22    29.98R
SUSSEX         CLEAR     64  23  21 N13G22    30.06R
ANDOVER          N/A     63  22  20 N9G21     30.03R
TRENTON        MOCLDY    72  38  29 N13       29.98R
MILLVILLE      CLOUDY    62  49  62 VRB5      29.98R
ATLANTIC CITY  CLOUDY    62  47  57 SW8       29.97R
WRIGHTSTOWN    MOCLDY    66  45  47 W7        29.93R
TOMS RIVER     MOCLDY    61  46  59 CALM      29.95S
BELMAR         MOCLDY    70  45  40 NW8G29    29.98R
$$

PAZ047>061-062-071-190300-
EASTERN PENNSYLVANIA

CITY           SKY/WX    TMP DP  RH WIND       PRES   REMARKS
PHILADELPHIA   CLOUDY    67  47  48 SW5       29.97R
ALLENTOWN      PTCLDY    67  35  30 N8        30.03R
SCRANTON       CLEAR     60  25  26 N13       30.09R
$$

CTZ002-004>006-009-010-012-RIZ004-006-007-MAZ004-011-015-190300-
SOUTHERN NEW ENGLAND
 IN CT

CITY           SKY/WX    TMP DP  RH WIND       PRES   REMARKS
BRADLEY INTL   CLEAR     61  30  31 NW5       30.00R
HARTFORD       CLEAR     64  30  27 VRB7      30.00R
DANBURY        CLEAR     62  28  27 N10G21    30.02R
WTRBRY/OXFORD  CLEAR     61  28  29 N23       30.03R
BRIDGEPORT     CLEAR     66  29  24 N17       29.98R
MERIDEN        CLEAR     65  30  27 N16G22    30.00R
NEW HAVEN      CLEAR     65  29  25 N12G21    29.98R
CHESTER        FAIR      64  30  27 N10G23    30.00R
GROTON         CLEAR     59  41  51 NE9       29.99R
WILLIMANTIC    CLEAR     61  39  44 N5        30.00R

 IN RI

CITY           SKY/WX    TMP DP  RH WIND       PRES   REMARKS
PROVIDENCE     CLEAR     51  40  65 NE6       30.01R
BLOCK ISLAND   CLEAR     52  39  62 NE8       30.01R
WESTERLY       CLEAR     57  42  57 NE7       30.00R

 IN MA

CITY           SKY/WX    TMP DP  RH WIND       PRES   REMARKS
BOSTON         CLEAR     45  40  82 N6        30.03R
WORCESTER      CLEAR     53  39  59 N3        30.01R
WESTFIELD      CLEAR     62  27  26 N10       30.00R
PROVINCETOWN   CLEAR     41  37  87 CALM      30.02R
NANTUCKET      CLEAR     48  41  76 N14       29.98R
$$

ANZ330-335-338-340-345-350-353-355-190300-
COASTAL MARINE OBSERVATIONS


STATION/POSITION TIME  SKY/WX   TEMP    WIND        PRES    VSBY  WAVE
                                AIR SEA DIR/SP/G                  HT/PER
                 (UTC)          (F)     (DEG/KT/KT) (MB)    (MI)  (FT/S)
NY HARB ENTRANCE 0150            57 48  190/  4/  4 1014.7          3/ 7
4S FIRE IS       0133               45                N/A           4/ 4
20S FIRE ISLAND  0050               45              1013.4          3/ 3
23SW MTP         NOT AVBL
HUDSON CANYON    NOT AVBL
EXECUTION ROCKS  NOT AVBL
WESTERN LI SOUND NOT AVBL
CENTRAL LI SOUND NOT AVBL
EASTERN LI SOUND 0100            53     300/  8/ 12   N/A
ROBBINS REEF     0100            73     360/ 16/ 22 1012.8
$$


>>>>>>>>>>>>>>>>>>>>>>>>>>>> KEY <<<<<<<<<<<<<<<<<<<<<<<<<<<
>                                                          <
>     SKY/WX - SKY CONDITION/PRESENT WEATHER               <
>     TMP    - TEMPERATURE IN FAHRENHEIT                   <
>     DP     - DEWPOINT IN FAHRENHEIT                      <
>     RH     - RELATIVE HUMIDITY IN PERCENT                <
>     WIND   - DIRECTION AND SPEED IN MPH                  <
>     PRES   - MEAN SEA LEVEL PRESSURE IN INCHES OF HG     <
>     WCI    - WIND CHILL INDEX                            <
>     VSB    - VISIBILITY IN MILES                         <
>     HX     - HEAT INDEX                                  <
>     TC     - TEMPERATURE IN CELSIUS                      <
>     VRB    - VARIABLE WIND DIRECTION                     <
>                                                          <
>>>>>>>>>>>>>>>>>>>>>>>>>>>> KEY <<<<<<<<<<<<<<<<<<<<<<<<<<<




USA.gov is the U.S. government's official web portal to all federal, state and local government web resources and services.